iso_date,epoch_date,Year,Hour,Min,DOY,POS_DOY,Lat,Lon,BP,Ts,Ta,has_bp,has_ts,has_ta,BuoyID,Buoy_Type,Buoy_Owner,Logistics,Hemisphere
2014-08-16T05:00:57Z,1408165258,2014,5,0,228.209,228.209,79.9389,-158.6402,-999.00,-999.00,-999.0,no,no,no,90081,ITP,WHOI,Xuelong,North
2014-08-16T06:00:00Z,1408168800,2014,6,0,228.25,228.25,79.9404,-158.6428,-999.00,-999.00,-999.0,no,no,no,90081,ITP,WHOI,Xuelong,North
2014-08-16T07:00:28Z,1408172429,2014,7,0,228.292,228.292,79.9415,-158.6458,-999.00,-999.00,-999.0,no,no,no,90081,ITP,WHOI,Xuelong,North
2014-08-16T08:00:57Z,1408176058,2014,8,0,228.334,228.334,79.9424,-158.6562,-999.00,-999.00,-999.0,no,no,no,90081,ITP,WHOI,Xuelong,North
2014-08-16T09:00:00Z,1408179600,2014,9,0,228.375,228.375,79.9433,-158.6573,-999.00,-999.00,-999.0,no,no,no,90081,ITP,WHOI,Xuelong,North
2014-08-16T10:00:28Z,1408183229,2014,10,0,228.417,228.417,79.9447,-158.6659,-999.00,-999.00,-999.0,no,no,no,90081,ITP,WHOI,Xuelong,North
2014-08-16T11:00:57Z,1408186858,2014,11,0,228.459,228.459,79.9463,-158.676,-999.00,-999.00,-999.0,no,no,no,90081,ITP,WHOI,Xuelong,North
2014-08-16T12:00:00Z,1408190400,2014,12,0,228.5,228.5,79.9485,-158.6857,-999.00,-999.00,-999.0,no,no,no,90081,ITP,WHOI,Xuelong,North
2014-08-16T13:00:28Z,1408194029,2014,13,0,228.542,228.542,79.9513,-158.6946,-999.00,-999.00,-999.0,no,no,no,90081,ITP,WHOI,Xuelong,North
2014-08-16T14:00:57Z,1408197658,2014,14,0,228.584,228.584,79.9541,-158.7018,-999.00,-999.00,-999.0,no,no,no,90081,ITP,WHOI,Xuelong,North
2014-08-16T15:00:00Z,1408201200,2014,15,0,228.625,228.625,79.9571,-158.707,-999.00,-999.00,-999.0,no,no,no,90081,ITP,WHOI,Xuelong,North
2014-08-16T16:00:28Z,1408204829,2014,16,0,228.667,228.667,79.96,-158.7108,-999.00,-999.00,-999.0,no,no,no,90081,ITP,WHOI,Xuelong,North
2014-08-16T17:00:57Z,1408208458,2014,17,0,228.709,228.709,79.9628,-158.7139,-999.00,-999.00,-999.0,no,no,no,90081,ITP,WHOI,Xuelong,North
2014-08-16T18:00:00Z,1408212000,2014,18,0,228.75,228.75,79.9654,-158.7162,-999.00,-999.00,-999.0,no,no,no,90081,ITP,WHOI,Xuelong,North
2014-08-16T19:00:28Z,1408215629,2014,19,0,228.792,228.792,79.9682,-158.7196,-999.00,-999.00,-999.0,no,no,no,90081,ITP,WHOI,Xuelong,North
2014-08-16T20:00:57Z,1408219258,2014,20,0,228.834,228.834,79.971,-158.7247,-999.00,-999.00,-999.0,no,no,no,90081,ITP,WHOI,Xuelong,North
2014-08-16T21:00:00Z,1408222800,2014,21,0,228.875,228.875,79.9741,-158.7313,-999.00,-999.00,-999.0,no,no,no,90081,ITP,WHOI,Xuelong,North
2014-08-16T22:00:28Z,1408226429,2014,22,0,228.917,228.917,79.9776,-158.7392,-999.00,-999.00,-999.0,no,no,no,90081,ITP,WHOI,Xuelong,North
2014-08-16T22:59:31Z,1408229971,2014,23,0,228.958,228.958,79.9814,-158.7472,-999.00,-999.00,-999.0,no,no,no,90081,ITP,WHOI,Xuelong,North
2014-08-17T00:00:00Z,1408233600,2014,0,0,229.0,229.0,79.9856,-158.7543,-999.00,-999.00,-999.0,no,no,no,90081,ITP,WHOI,Xuelong,North
2014-08-17T01:04:48Z,1408237488,2014,1,4,229.045,229.045,79.9903,-158.7603,-999.00,-999.00,-999.0,no,no,no,90081,ITP,WHOI,Xuelong,North
2014-08-17T01:59:31Z,1408240771,2014,2,0,229.083,229.083,79.9947,-158.7634,-999.00,-999.00,-999.0,no,no,no,90081,ITP,WHOI,Xuelong,North
2014-08-17T03:00:00Z,1408244400,2014,3,0,229.125,229.125,79.9996,-158.7644,-999.00,-999.00,-999.0,no,no,no,90081,ITP,WHOI,Xuelong,North
2014-08-17T04:00:28Z,1408248029,2014,4,0,229.167,229.167,80.0042,-158.7626,-999.00,-999.00,-999.0,no,no,no,90081,ITP,WHOI,Xuelong,North
2014-08-17T05:00:57Z,1408251658,2014,5,0,229.209,229.209,80.0088,-158.7583,-999.00,-999.00,-999.0,no,no,no,90081,ITP,WHOI,Xuelong,North
2014-08-17T06:00:00Z,1408255200,2014,6,0,229.25,229.25,80.0129,-158.7527,-999.00,-999.00,-999.0,no,no,no,90081,ITP,WHOI,Xuelong,North
2014-08-17T07:01:55Z,1408258915,2014,7,2,229.293,229.293,80.0166,-158.7478,-999.00,-999.00,-999.0,no,no,no,90081,ITP,WHOI,Xuelong,North
2014-08-17T07:59:31Z,1408262371,2014,8,0,229.333,229.333,80.0197,-158.7442,-999.00,-999.00,-999.0,no,no,no,90081,ITP,WHOI,Xuelong,North
2014-08-17T09:00:00Z,1408266000,2014,9,0,229.375,229.375,80.0227,-158.7432,-999.00,-999.00,-999.0,no,no,no,90081,ITP,WHOI,Xuelong,North
2014-08-17T10:00:28Z,1408269629,2014,10,0,229.417,229.417,80.0256,-158.7452,-999.00,-999.00,-999.0,no,no,no,90081,ITP,WHOI,Xuelong,North
2014-08-17T11:00:57Z,1408273258,2014,11,0,229.459,229.459,80.0288,-158.7496,-999.00,-999.00,-999.0,no,no,no,90081,ITP,WHOI,Xuelong,North
2014-08-17T12:00:00Z,1408276800,2014,12,0,229.5,229.5,80.0324,-158.7542,-999.00,-999.00,-999.0,no,no,no,90081,ITP,WHOI,Xuelong,North
2014-08-17T13:00:28Z,1408280429,2014,13,0,229.542,229.542,80.0361,-158.758,-999.00,-999.00,-999.0,no,no,no,90081,ITP,WHOI,Xuelong,North
2014-08-17T14:00:57Z,1408284058,2014,14,0,229.584,229.584,80.0401,-158.7603,-999.00,-999.00,-999.0,no,no,no,90081,ITP,WHOI,Xuelong,North
2014-08-17T15:00:00Z,1408287600,2014,15,0,229.625,229.625,80.044,-158.7607,-999.00,-999.00,-999.0,no,no,no,90081,ITP,WHOI,Xuelong,North
2014-08-17T16:00:28Z,1408291229,2014,16,0,229.667,229.667,80.048,-158.7601,-999.00,-999.00,-999.0,no,no,no,90081,ITP,WHOI,Xuelong,North
2014-08-17T17:00:57Z,1408294858,2014,17,0,229.709,229.709,80.052,-158.7597,-999.00,-999.00,-999.0,no,no,no,90081,ITP,WHOI,Xuelong,North
2014-08-17T18:00:00Z,1408298400,2014,18,0,229.75,229.75,80.0559,-158.7585,-999.00,-999.00,-999.0,no,no,no,90081,ITP,WHOI,Xuelong,North
2014-08-17T19:00:28Z,1408302029,2014,19,0,229.792,229.792,80.0598,-158.7588,-999.00,-999.00,-999.0,no,no,no,90081,ITP,WHOI,Xuelong,North
2014-08-17T19:59:31Z,1408305571,2014,20,0,229.833,229.833,80.064,-158.7614,-999.00,-999.00,-999.0,no,no,no,90081,ITP,WHOI,Xuelong,North
2014-08-17T21:00:00Z,1408309200,2014,21,0,229.875,229.875,80.0682,-158.7655,-999.00,-999.00,-999.0,no,no,no,90081,ITP,WHOI,Xuelong,North
2014-08-17T22:00:28Z,1408312829,2014,22,0,229.917,229.917,80.0723,-158.7713,-999.00,-999.00,-999.0,no,no,no,90081,ITP,WHOI,Xuelong,North
2014-08-17T22:59:31Z,1408316371,2014,23,0,229.958,229.958,80.0771,-158.7769,-999.00,-999.00,-999.0,no,no,no,90081,ITP,WHOI,Xuelong,North
2014-08-18T00:00:00Z,1408320000,2014,0,0,230.0,230.0,80.0824,-158.7826,-999.00,-999.00,-999.0,no,no,no,90081,ITP,WHOI,Xuelong,North
2014-08-18T01:01:55Z,1408323715,2014,1,2,230.043,230.043,80.0877,-158.7866,-999.00,-999.00,-999.0,no,no,no,90081,ITP,WHOI,Xuelong,North
2014-08-18T01:59:31Z,1408327171,2014,2,0,230.083,230.083,80.0926,-158.7895,-999.00,-999.00,-999.0,no,no,no,90081,ITP,WHOI,Xuelong,North
2014-08-18T03:00:00Z,1408330800,2014,3,0,230.125,230.125,80.0974,-158.7931,-999.00,-999.00,-999.0,no,no,no,90081,ITP,WHOI,Xuelong,North
2014-08-18T04:00:28Z,1408334429,2014,4,0,230.167,230.167,80.1023,-158.7959,-999.00,-999.00,-999.0,no,no,no,90081,ITP,WHOI,Xuelong,North
2014-08-18T05:00:57Z,1408338058,2014,5,0,230.209,230.209,80.1073,-158.7985,-999.00,-999.00,-999.0,no,no,no,90081,ITP,WHOI,Xuelong,North
2014-08-18T06:00:00Z,1408341600,2014,6,0,230.25,230.25,80.1123,-158.8023,-999.00,-999.00,-999.0,no,no,no,90081,ITP,WHOI,Xuelong,North
2014-08-18T07:01:55Z,1408345315,2014,7,2,230.293,230.293,80.1212,-158.8066,-999.00,-999.00,-999.0,no,no,no,90081,ITP,WHOI,Xuelong,North
2014-08-18T08:00:57Z,1408348858,2014,8,0,230.334,230.334,80.1214,-158.8111,-999.00,-999.00,-999.0,no,no,no,90081,ITP,WHOI,Xuelong,North
2014-08-18T09:00:00Z,1408352400,2014,9,0,230.375,230.375,80.1258,-158.8159,-999.00,-999.00,-999.0,no,no,no,90081,ITP,WHOI,Xuelong,North
2014-08-18T10:00:28Z,1408356029,2014,10,0,230.417,230.417,80.1302,-158.821,-999.00,-999.00,-999.0,no,no,no,90081,ITP,WHOI,Xuelong,North
2014-08-18T10:59:31Z,1408359571,2014,11,0,230.458,230.458,80.147,-158.8263,-999.00,-999.00,-999.0,no,no,no,90081,ITP,WHOI,Xuelong,North
2014-08-18T12:00:00Z,1408363200,2014,12,0,230.5,230.5,80.139,-158.8323,-999.00,-999.00,-999.0,no,no,no,90081,ITP,WHOI,Xuelong,North
2014-08-18T13:00:28Z,1408366829,2014,13,0,230.542,230.542,80.1434,-158.8383,-999.00,-999.00,-999.0,no,no,no,90081,ITP,WHOI,Xuelong,North
2014-08-18T14:00:57Z,1408370458,2014,14,0,230.584,230.584,80.1477,-158.8443,-999.00,-999.00,-999.0,no,no,no,90081,ITP,WHOI,Xuelong,North
2014-08-18T15:00:00Z,1408374000,2014,15,0,230.625,230.625,80.1521,-158.8602,-999.00,-999.00,-999.0,no,no,no,90081,ITP,WHOI,Xuelong,North
2014-08-18T16:00:28Z,1408377629,2014,16,0,230.667,230.667,80.1564,-158.8589,-999.00,-999.00,-999.0,no,no,no,90081,ITP,WHOI,Xuelong,North
2014-08-18T17:00:57Z,1408381258,2014,17,0,230.709,230.709,80.1611,-158.8785,-999.00,-999.00,-999.0,no,no,no,90081,ITP,WHOI,Xuelong,North
2014-08-18T18:00:00Z,1408384800,2014,18,0,230.75,230.75,80.1664,-158.8775,-999.00,-999.00,-999.0,no,no,no,90081,ITP,WHOI,Xuelong,North
2014-08-18T19:00:28Z,1408388429,2014,19,0,230.792,230.792,80.1722,-158.8864,-999.00,-999.00,-999.0,no,no,no,90081,ITP,WHOI,Xuelong,North
2014-08-18T20:00:57Z,1408392058,2014,20,0,230.834,230.834,80.1786,-158.8944,-999.00,-999.00,-999.0,no,no,no,90081,ITP,WHOI,Xuelong,North
2014-08-18T21:00:00Z,1408395600,2014,21,0,230.875,230.875,80.1992,-158.9023,-999.00,-999.00,-999.0,no,no,no,90081,ITP,WHOI,Xuelong,North
2014-08-18T22:00:28Z,1408399229,2014,22,0,230.917,230.917,80.1913,-158.9099,-999.00,-999.00,-999.0,no,no,no,90081,ITP,WHOI,Xuelong,North
2014-08-18T23:00:57Z,1408402858,2014,23,0,230.959,230.959,80.1977,-158.9159,-999.00,-999.00,-999.0,no,no,no,90081,ITP,WHOI,Xuelong,North
2014-08-19T00:00:00Z,1408406400,2014,0,0,231.0,231.0,80.204,-158.9216,-999.00,-999.00,-999.0,no,no,no,90081,ITP,WHOI,Xuelong,North
2014-08-19T01:03:21Z,1408410202,2014,1,3,231.044,231.044,80.2105,-158.9267,-999.00,-999.00,-999.0,no,no,no,90081,ITP,WHOI,Xuelong,North
2014-08-19T01:59:31Z,1408413571,2014,2,0,231.083,231.083,80.2163,-158.9316,-999.00,-999.00,-999.0,no,no,no,90081,ITP,WHOI,Xuelong,North
2014-08-19T03:00:00Z,1408417200,2014,3,0,231.125,231.125,80.2224,-158.9372,-999.00,-999.00,-999.0,no,no,no,90081,ITP,WHOI,Xuelong,North
2014-08-19T04:00:28Z,1408420829,2014,4,0,231.167,231.167,80.2286,-158.9432,-999.00,-999.00,-999.0,no,no,no,90081,ITP,WHOI,Xuelong,North
2014-08-19T05:00:57Z,1408424458,2014,5,0,231.209,231.209,80.2354,-158.9493,-999.00,-999.00,-999.0,no,no,no,90081,ITP,WHOI,Xuelong,North
2014-08-19T06:00:00Z,1408428000,2014,6,0,231.25,231.25,80.2422,-158.9562,-999.00,-999.00,-999.0,no,no,no,90081,ITP,WHOI,Xuelong,North
2014-08-19T07:01:55Z,1408431715,2014,7,2,231.293,231.293,80.2488,-158.964,-999.00,-999.00,-999.0,no,no,no,90081,ITP,WHOI,Xuelong,North
2014-08-19T08:00:57Z,1408435258,2014,8,0,231.334,231.334,80.2553,-158.9703,-999.00,-999.00,-999.0,no,no,no,90081,ITP,WHOI,Xuelong,North
2014-08-19T09:00:00Z,1408438800,2014,9,0,231.375,231.375,80.2618,-158.9764,-999.00,-999.00,-999.0,no,no,no,90081,ITP,WHOI,Xuelong,North
2014-08-19T10:00:28Z,1408442429,2014,10,0,231.417,231.417,80.2811,-158.9818,-999.00,-999.00,-999.0,no,no,no,90081,ITP,WHOI,Xuelong,North
2014-08-19T10:59:31Z,1408445971,2014,11,0,231.458,231.458,80.2743,-158.9858,-999.00,-999.00,-999.0,no,no,no,90081,ITP,WHOI,Xuelong,North
2014-08-19T12:00:00Z,1408449600,2014,12,0,231.5,231.5,80.28,-158.9882,-999.00,-999.00,-999.0,no,no,no,90081,ITP,WHOI,Xuelong,North
2014-08-19T13:00:28Z,1408453229,2014,13,0,231.542,231.542,80.2855,-158.9899,-999.00,-999.00,-999.0,no,no,no,90081,ITP,WHOI,Xuelong,North
2014-08-19T14:00:57Z,1408456858,2014,14,0,231.584,231.584,80.2909,-158.9919,-999.00,-999.00,-999.0,no,no,no,90081,ITP,WHOI,Xuelong,North
2014-08-19T15:00:00Z,1408460400,2014,15,0,231.625,231.625,80.296,-158.9935,-999.00,-999.00,-999.0,no,no,no,90081,ITP,WHOI,Xuelong,North
2014-08-19T16:00:28Z,1408464029,2014,16,0,231.667,231.667,80.3067,-158.9955,-999.00,-999.00,-999.0,no,no,no,90081,ITP,WHOI,Xuelong,North
2014-08-19T17:00:57Z,1408467658,2014,17,0,231.709,231.709,80.3051,-158.998,-999.00,-999.00,-999.0,no,no,no,90081,ITP,WHOI,Xuelong,North
2014-08-19T18:00:00Z,1408471200,2014,18,0,231.75,231.75,80.3093,-159.0136,-999.00,-999.00,-999.0,no,no,no,90081,ITP,WHOI,Xuelong,North
2014-08-19T19:00:28Z,1408474829,2014,19,0,231.792,231.792,80.3134,-159.0052,-999.00,-999.00,-999.0,no,no,no,90081,ITP,WHOI,Xuelong,North
2014-08-19T19:59:31Z,1408478371,2014,20,0,231.833,231.833,80.3241,-159.0084,-999.00,-999.00,-999.0,no,no,no,90081,ITP,WHOI,Xuelong,North
2014-08-19T21:00:00Z,1408482000,2014,21,0,231.875,231.875,80.3214,-159.0099,-999.00,-999.00,-999.0,no,no,no,90081,ITP,WHOI,Xuelong,North
2014-08-19T22:00:28Z,1408485629,2014,22,0,231.917,231.917,80.3254,-159.0087,-999.00,-999.00,-999.0,no,no,no,90081,ITP,WHOI,Xuelong,North
2014-08-19T22:59:31Z,1408489171,2014,23,0,231.958,231.958,80.3292,-159.0044,-999.00,-999.00,-999.0,no,no,no,90081,ITP,WHOI,Xuelong,North
2014-08-20T00:00:00Z,1408492800,2014,0,0,232.0,232.0,80.3327,-158.9961,-999.00,-999.00,-999.0,no,no,no,90081,ITP,WHOI,Xuelong,North
2014-08-20T01:01:55Z,1408496515,2014,1,2,232.043,232.043,80.336,-158.9886,-999.00,-999.00,-999.0,no,no,no,90081,ITP,WHOI,Xuelong,North
2014-08-20T02:00:57Z,1408500058,2014,2,0,232.084,232.084,80.3387,-158.9693,-999.00,-999.00,-999.0,no,no,no,90081,ITP,WHOI,Xuelong,North
2014-08-20T03:00:00Z,1408503600,2014,3,0,232.125,232.125,80.3411,-158.953,-999.00,-999.00,-999.0,no,no,no,90081,ITP,WHOI,Xuelong,North
2014-08-20T04:00:28Z,1408507229,2014,4,0,232.167,232.167,80.343,-158.9352,-999.00,-999.00,-999.0,no,no,no,90081,ITP,WHOI,Xuelong,North
2014-08-20T05:00:57Z,1408510858,2014,5,0,232.209,232.209,80.3446,-158.9261,-999.00,-999.00,-999.0,no,no,no,90081,ITP,WHOI,Xuelong,North
2014-08-20T06:00:00Z,1408514400,2014,6,0,232.25,232.25,80.3458,-158.9113,-999.00,-999.00,-999.0,no,no,no,90081,ITP,WHOI,Xuelong,North
2014-08-20T07:01:55Z,1408518115,2014,7,2,232.293,232.293,80.3468,-158.8852,-999.00,-999.00,-999.0,no,no,no,90081,ITP,WHOI,Xuelong,North
2014-08-20T08:00:57Z,1408521658,2014,8,0,232.334,232.334,80.3476,-158.8723,-999.00,-999.00,-999.0,no,no,no,90081,ITP,WHOI,Xuelong,North
2014-08-20T09:00:00Z,1408525200,2014,9,0,232.375,232.375,80.3484,-158.8603,-999.00,-999.00,-999.0,no,no,no,90081,ITP,WHOI,Xuelong,North
2014-08-20T10:00:28Z,1408528829,2014,10,0,232.417,232.417,80.3495,-158.8475,-999.00,-999.00,-999.0,no,no,no,90081,ITP,WHOI,Xuelong,North
2014-08-20T11:00:57Z,1408532458,2014,11,0,232.459,232.459,80.3573,-158.8455,-999.00,-999.00,-999.0,no,no,no,90081,ITP,WHOI,Xuelong,North
2014-08-20T12:00:00Z,1408536000,2014,12,0,232.5,232.5,80.3519,-158.8191,-999.00,-999.00,-999.0,no,no,no,90081,ITP,WHOI,Xuelong,North
2014-08-20T13:00:28Z,1408539629,2014,13,1,232.542,232.542,80.3529,-158.8019,-999.00,-999.00,-999.0,no,no,no,90081,ITP,WHOI,Xuelong,North
2014-08-20T14:00:57Z,1408543258,2014,14,0,232.584,232.584,80.3536,-158.7855,-999.00,-999.00,-999.0,no,no,no,90081,ITP,WHOI,Xuelong,North
2014-08-20T15:00:00Z,1408546800,2014,15,0,232.625,232.625,80.3541,-158.764,-999.00,-999.00,-999.0,no,no,no,90081,ITP,WHOI,Xuelong,North
2014-08-20T16:00:28Z,1408550429,2014,16,0,232.667,232.667,80.3541,-158.7448,-999.00,-999.00,-999.0,no,no,no,90081,ITP,WHOI,Xuelong,North
2014-08-20T17:00:57Z,1408554058,2014,17,0,232.709,232.709,80.3538,-158.7257,-999.00,-999.00,-999.0,no,no,no,90081,ITP,WHOI,Xuelong,North
2014-08-20T18:00:00Z,1408557600,2014,18,0,232.75,232.75,80.3534,-158.7081,-999.00,-999.00,-999.0,no,no,no,90081,ITP,WHOI,Xuelong,North
2014-08-20T19:00:28Z,1408561229,2014,19,0,232.792,232.792,80.3531,-158.6921,-999.00,-999.00,-999.0,no,no,no,90081,ITP,WHOI,Xuelong,North
2014-08-20T20:00:57Z,1408564858,2014,20,0,232.834,232.834,80.3528,-158.6773,-999.00,-999.00,-999.0,no,no,no,90081,ITP,WHOI,Xuelong,North
2014-08-20T21:00:00Z,1408568400,2014,21,0,232.875,232.875,80.3527,-158.6626,-999.00,-999.00,-999.0,no,no,no,90081,ITP,WHOI,Xuelong,North
2014-08-20T22:00:28Z,1408572029,2014,22,0,232.917,232.917,80.3531,-158.648,-999.00,-999.00,-999.0,no,no,no,90081,ITP,WHOI,Xuelong,North
2014-08-20T23:00:57Z,1408575658,2014,23,0,232.959,232.959,80.3536,-158.6331,-999.00,-999.00,-999.0,no,no,no,90081,ITP,WHOI,Xuelong,North
2014-08-21T00:00:00Z,1408579200,2014,0,0,233.0,233.0,80.3546,-158.6273,-999.00,-999.00,-999.0,no,no,no,90081,ITP,WHOI,Xuelong,North
2014-08-21T01:01:55Z,1408582915,2014,1,1,233.043,233.043,80.3559,-158.6141,-999.00,-999.00,-999.0,no,no,no,90081,ITP,WHOI,Xuelong,North
2014-08-21T02:00:57Z,1408586458,2014,2,0,233.084,233.084,80.3575,-158.5857,-999.00,-999.00,-999.0,no,no,no,90081,ITP,WHOI,Xuelong,North
2014-08-21T03:00:00Z,1408590000,2014,3,0,233.125,233.125,80.359,-158.5698,-999.00,-999.00,-999.0,no,no,no,90081,ITP,WHOI,Xuelong,North
2014-08-21T04:00:28Z,1408593629,2014,4,0,233.167,233.167,80.3603,-158.5546,-999.00,-999.00,-999.0,no,no,no,90081,ITP,WHOI,Xuelong,North
2014-08-21T05:00:57Z,1408597258,2014,5,0,233.209,233.209,80.3614,-158.5419,-999.00,-999.00,-999.0,no,no,no,90081,ITP,WHOI,Xuelong,North
2014-08-21T06:00:00Z,1408600800,2014,6,0,233.25,233.25,80.3621,-158.5315,-999.00,-999.00,-999.0,no,no,no,90081,ITP,WHOI,Xuelong,North
2014-08-21T07:01:55Z,1408604515,2014,7,1,233.293,233.293,80.3628,-158.5228,-999.00,-999.00,-999.0,no,no,no,90081,ITP,WHOI,Xuelong,North
2014-08-21T08:00:57Z,1408608058,2014,8,0,233.334,233.334,80.3634,-158.5162,-999.00,-999.00,-999.0,no,no,no,90081,ITP,WHOI,Xuelong,North
2014-08-21T09:00:00Z,1408611600,2014,9,0,233.375,233.375,80.3642,-158.511,-999.00,-999.00,-999.0,no,no,no,90081,ITP,WHOI,Xuelong,North
2014-08-21T10:00:28Z,1408615229,2014,10,0,233.417,233.417,80.3651,-158.5064,-999.00,-999.00,-999.0,no,no,no,90081,ITP,WHOI,Xuelong,North
2014-08-21T11:00:57Z,1408618858,2014,11,0,233.459,233.459,80.3662,-158.5057,-999.00,-999.00,-999.0,no,no,no,90081,ITP,WHOI,Xuelong,North
2014-08-21T12:00:00Z,1408622400,2014,12,0,233.5,233.5,80.3673,-158.4929,-999.00,-999.00,-999.0,no,no,no,90081,ITP,WHOI,Xuelong,North
2014-08-21T13:00:28Z,1408626029,2014,13,0,233.542,233.542,80.3683,-158.4947,-999.00,-999.00,-999.0,no,no,no,90081,ITP,WHOI,Xuelong,North
2014-08-21T14:00:57Z,1408629658,2014,14,0,233.584,233.584,80.3689,-158.4722,-999.00,-999.00,-999.0,no,no,no,90081,ITP,WHOI,Xuelong,North
2014-08-21T15:00:00Z,1408633200,2014,15,0,233.625,233.625,80.3702,-158.4606,-999.00,-999.00,-999.0,no,no,no,90081,ITP,WHOI,Xuelong,North
2014-08-21T16:00:28Z,1408636829,2014,16,0,233.667,233.667,80.3714,-158.4483,-999.00,-999.00,-999.0,no,no,no,90081,ITP,WHOI,Xuelong,North
2014-08-21T17:00:57Z,1408640458,2014,17,0,233.709,233.709,80.3831,-158.4369,-999.00,-999.00,-999.0,no,no,no,90081,ITP,WHOI,Xuelong,North
2014-08-21T18:00:00Z,1408644000,2014,18,0,233.75,233.75,80.3712,-158.4267,-999.00,-999.00,-999.0,no,no,no,90081,ITP,WHOI,Xuelong,North
2014-08-21T19:00:28Z,1408647629,2014,19,0,233.792,233.792,80.3684,-158.4271,-999.00,-999.00,-999.0,no,no,no,90081,ITP,WHOI,Xuelong,North
2014-08-21T19:59:31Z,1408651171,2014,20,0,233.833,233.833,80.3669,-158.4093,-999.00,-999.00,-999.0,no,no,no,90081,ITP,WHOI,Xuelong,North
2014-08-21T21:01:26Z,1408654886,2014,21,0,233.876,233.876,80.3654,-158.4106,-999.00,-999.00,-999.0,no,no,no,90081,ITP,WHOI,Xuelong,North
2014-08-21T22:00:28Z,1408658429,2014,22,0,233.917,233.917,80.3649,-158.3925,-999.00,-999.00,-999.0,no,no,no,90081,ITP,WHOI,Xuelong,North
2014-08-21T23:00:57Z,1408662058,2014,23,0,233.959,233.959,80.3646,-158.3824,-999.00,-999.00,-999.0,no,no,no,90081,ITP,WHOI,Xuelong,North
2014-08-22T00:00:00Z,1408665600,2014,0,0,234.0,234.0,80.3645,-158.3693,-999.00,-999.00,-999.0,no,no,no,90081,ITP,WHOI,Xuelong,North
2014-08-22T01:01:55Z,1408669315,2014,1,1,234.043,234.043,80.3644,-158.3522,-999.00,-999.00,-999.0,no,no,no,90081,ITP,WHOI,Xuelong,North
2014-08-22T02:00:57Z,1408672858,2014,2,0,234.084,234.084,80.3639,-158.3331,-999.00,-999.00,-999.0,no,no,no,90081,ITP,WHOI,Xuelong,North
2014-08-22T03:00:00Z,1408676400,2014,3,0,234.125,234.125,80.3631,-158.313,-999.00,-999.00,-999.0,no,no,no,90081,ITP,WHOI,Xuelong,North
2014-08-22T04:00:28Z,1408680029,2014,4,0,234.167,234.167,80.3617,-158.2929,-999.00,-999.00,-999.0,no,no,no,90081,ITP,WHOI,Xuelong,North
2014-08-22T05:00:57Z,1408683658,2014,5,0,234.209,234.209,80.3601,-158.2741,-999.00,-999.00,-999.0,no,no,no,90081,ITP,WHOI,Xuelong,North
2014-08-22T06:00:00Z,1408687200,2014,6,0,234.25,234.25,80.3584,-158.2584,-999.00,-999.00,-999.0,no,no,no,90081,ITP,WHOI,Xuelong,North
2014-08-22T07:01:55Z,1408690915,2014,7,1,234.293,234.293,80.3569,-158.245,-999.00,-999.00,-999.0,no,no,no,90081,ITP,WHOI,Xuelong,North
2014-08-22T08:00:57Z,1408694458,2014,8,0,234.334,234.334,80.3558,-158.2355,-999.00,-999.00,-999.0,no,no,no,90081,ITP,WHOI,Xuelong,North
2014-08-22T09:00:00Z,1408698000,2014,9,0,234.375,234.375,80.3552,-158.2218,-999.00,-999.00,-999.0,no,no,no,90081,ITP,WHOI,Xuelong,North
2014-08-22T10:00:28Z,1408701629,2014,10,0,234.417,234.417,80.3551,-158.2102,-999.00,-999.00,-999.0,no,no,no,90081,ITP,WHOI,Xuelong,North
2014-08-22T11:00:57Z,1408705258,2014,11,0,234.459,234.459,80.3552,-158.1987,-999.00,-999.00,-999.0,no,no,no,90081,ITP,WHOI,Xuelong,North
2014-08-22T12:00:00Z,1408708800,2014,12,0,234.5,234.5,80.3555,-158.1872,-999.00,-999.00,-999.0,no,no,no,90081,ITP,WHOI,Xuelong,North
2014-08-22T13:00:28Z,1408712429,2014,13,0,234.542,234.542,80.3558,-158.1756,-999.00,-999.00,-999.0,no,no,no,90081,ITP,WHOI,Xuelong,North
2014-08-22T14:00:57Z,1408716058,2014,14,0,234.584,234.584,80.356,-158.164,-999.00,-999.00,-999.0,no,no,no,90081,ITP,WHOI,Xuelong,North
2014-08-22T15:00:00Z,1408719600,2014,15,0,234.625,234.625,80.3562,-158.1537,-999.00,-999.00,-999.0,no,no,no,90081,ITP,WHOI,Xuelong,North
2014-08-22T16:00:28Z,1408723229,2014,16,0,234.667,234.667,80.3562,-158.1443,-999.00,-999.00,-999.0,no,no,no,90081,ITP,WHOI,Xuelong,North
2014-08-22T17:00:57Z,1408726858,2014,17,0,234.709,234.709,80.3561,-158.1364,-999.00,-999.00,-999.0,no,no,no,90081,ITP,WHOI,Xuelong,North
2014-08-22T18:00:00Z,1408730400,2014,18,0,234.75,234.75,80.3561,-158.1306,-999.00,-999.00,-999.0,no,no,no,90081,ITP,WHOI,Xuelong,North
2014-08-22T19:00:28Z,1408734029,2014,19,0,234.792,234.792,80.3564,-158.1268,-999.00,-999.00,-999.0,no,no,no,90081,ITP,WHOI,Xuelong,North
2014-08-22T20:00:57Z,1408737658,2014,20,0,234.834,234.834,80.3572,-158.1246,-999.00,-999.00,-999.0,no,no,no,90081,ITP,WHOI,Xuelong,North
2014-08-22T21:00:00Z,1408741200,2014,21,0,234.875,234.875,80.3586,-158.1229,-999.00,-999.00,-999.0,no,no,no,90081,ITP,WHOI,Xuelong,North
2014-08-22T22:00:28Z,1408744829,2014,22,0,234.917,234.917,80.3602,-158.1204,-999.00,-999.00,-999.0,no,no,no,90081,ITP,WHOI,Xuelong,North
2014-08-22T23:00:57Z,1408748458,2014,23,0,234.959,234.959,80.3623,-158.1272,-999.00,-999.00,-999.0,no,no,no,90081,ITP,WHOI,Xuelong,North
2014-08-23T00:00:00Z,1408752000,2014,0,0,235.0,235.0,80.3645,-158.1119,-999.00,-999.00,-999.0,no,no,no,90081,ITP,WHOI,Xuelong,North
2014-08-23T01:01:55Z,1408755715,2014,1,2,235.043,235.043,80.3732,-158.1059,-999.00,-999.00,-999.0,no,no,no,90081,ITP,WHOI,Xuelong,North
2014-08-23T02:00:57Z,1408759258,2014,2,0,235.084,235.084,80.3686,-158.1021,-999.00,-999.00,-999.0,no,no,no,90081,ITP,WHOI,Xuelong,North
2014-08-23T03:00:00Z,1408762800,2014,3,0,235.125,235.125,80.37,-158.0951,-999.00,-999.00,-999.0,no,no,no,90081,ITP,WHOI,Xuelong,North
2014-08-23T04:00:28Z,1408766429,2014,4,0,235.167,235.167,80.3719,-158.0921,-999.00,-999.00,-999.0,no,no,no,90081,ITP,WHOI,Xuelong,North
2014-08-23T05:00:57Z,1408770058,2014,5,0,235.209,235.209,80.3735,-158.0906,-999.00,-999.00,-999.0,no,no,no,90081,ITP,WHOI,Xuelong,North
2014-08-23T06:00:00Z,1408773600,2014,6,0,235.25,235.25,80.3751,-158.0906,-999.00,-999.00,-999.0,no,no,no,90081,ITP,WHOI,Xuelong,North
2014-08-23T07:01:55Z,1408777315,2014,7,1,235.293,235.293,80.377,-158.0909,-999.00,-999.00,-999.0,no,no,no,90081,ITP,WHOI,Xuelong,North
2014-08-23T08:00:57Z,1408780858,2014,8,0,235.334,235.334,80.379,-158.0914,-999.00,-999.00,-999.0,no,no,no,90081,ITP,WHOI,Xuelong,North
2014-08-23T09:00:00Z,1408784400,2014,9,0,235.375,235.375,80.3813,-158.0919,-999.00,-999.00,-999.0,no,no,no,90081,ITP,WHOI,Xuelong,North
2014-08-23T10:00:28Z,1408788029,2014,10,0,235.417,235.417,80.3885,-158.0918,-999.00,-999.00,-999.0,no,no,no,90081,ITP,WHOI,Xuelong,North
2014-08-23T11:00:57Z,1408791658,2014,11,0,235.459,235.459,80.3865,-158.0888,-999.00,-999.00,-999.0,no,no,no,90081,ITP,WHOI,Xuelong,North